Regional Weather Roundup
Issued by NWS

Home | Current Version | Previous Version | Text Only | Print | Product List | Glossary On
Versions: 1 2 3 4 5 6 7 8 9 10 11 12 13 14 15 16 17 18 19 20 21 22 23 24 25 26 27 28
000
ASUS46 KPQR 241410
RWROR

OREGON REGIONAL WEATHER ROUNDUP
NATIONAL WEATHER SERVICE PORTLAND OR
700 AM PDT THU APR 24 2014

NOTE: "FAIR" INDICATES FEW OR NO CLOUDS BELOW 12,000 FEET WITH
NO SIGNIFICANT WEATHER AND/OR OBSTRUCTIONS TO VISIBILITY.

ORZ001>013-241500-
NORTHWEST OREGON


CITY           SKY/WX    TMP DP  RH WIND       PRES   REMARKS
ASTORIA        PTCLDY    49  45  86 SW10      29.73R
NEWPORT        CLOUDY    50  48  93 SW9       29.85R FOG
PORTLAND       LGT RAIN  52  49  89 S7        29.75F
VANCOUVER WA   LGT RAIN  52  49  89 SE6       29.74F
SCAPPOOSE      LGT RAIN  52  50  93 S6        29.73R FOG
HILLSBORO      CLOUDY    51  47  86 SW5       29.75R
AURORA         LGT RAIN  49  49 100 SW8       29.78R
MCMINNVILLE    CLOUDY    51  48  89 SW12      29.78R
SALEM          LGT RAIN  52  49  89 S7        29.78R
CORVALLIS      CLOUDY    54  48  82 W3        29.83R
EUGENE         LGT RAIN  52  48  86 S13       29.83R
$$

ORZ021-028-241500-
SOUTHWEST OREGON


CITY           SKY/WX    TMP DP  RH WIND       PRES   REMARKS
NORTH BEND     CLOUDY    52  52 100 SW10      29.89R
BROOKINGS      LGT RAIN  51  51 100 S9G18     29.97R VSB 1/4
ROSEBURG       LGT RAIN  51  47  86 SE7       29.87S
SEXTON SUMMIT  LGT RAIN  38  38 100 S16G35    29.87R VSB 1/4 WCI  29
MEDFORD        LGT RAIN  49  47  93 CALM      29.91S
$$

ORZ009-041-241500-
COLUMBIA GORGE


CITY           SKY/WX    TMP DP  RH WIND       PRES   REMARKS
TROUTDALE      LGT RAIN  53  49  86 W8        29.76R
THE DALLES     CLOUDY    50  48  93 CALM      29.76R
$$

ORZ029>031-042>050-061>064-241500-
EASTERN OREGON


CITY           SKY/WX    TMP DP  RH WIND       PRES   REMARKS
REDMOND        PTCLDY    43  36  76 S9        29.81R
BEND           LGT RAIN  43  37  81 SW16G25   29.82S
KLAMATH FALLS  CLOUDY    41  36  82 NW3       29.95R
LAKEVIEW       CLOUDY    43  34  70 S15       29.97S
HERMISTON      CLOUDY    51  48  89 SE6       29.76F
PENDLETON      LGT RAIN  48  44  86 S9        29.79R
MEACHAM        RAIN      41  40  96 CALM      29.82R FOG
LA GRANDE      CLOUDY    45  36  70 S8        29.84R
BAKER CITY     CLOUDY    43  38  82 SE12      29.84S
BURNS          CLOUDY    42  40  92 N3        29.90R
ROME             N/A     49  33  54 S17       29.90R
ONTARIO        LGT RAIN  47  44  90 SE6       29.92R
$$



USA.gov is the U.S. government's official web portal to all federal, state and local government web resources and services.